Location: Unspecified
(0.0000°N, 0.0000°E)
Time: 10:39:21
(UTC+01:00)

Vanguard 1 Rocket - Visible Passes

Search period start: 29 November 2014 00:00
Search period end: 09 December 2014 00:00
Orbit: 655 x 4225 km, 34.3° (Epoch: 24 November)

Date Brightness Start Highest point End Pass type
(mag) Time Alt. Az. Time Alt. Az. Time Alt. Az.
29 Nov 11.0 00:05:39 10° NW 00:47:12 27° ESE 00:52:13 10° ESE visible
29 Nov 10.3 03:04:27 45° SW 03:04:27 45° SW 03:18:05 10° SSE visible
29 Nov 11.0 05:33:01 10° SW 05:34:37 10° SSW 05:36:07 10° SSW visible
29 Nov 11.0 20:24:21 10° NNW 20:40:23 26° NNE 20:43:53 26° NE visible
29 Nov 11.1 22:52:08 10° NW 23:01:14 31° NNW 23:01:14 31° NNW visible
30 Nov 10.4 01:56:51 51° SSE 01:56:51 51° SSE 02:07:37 10° SE visible
30 Nov 10.8 04:14:06 18° WSW 04:21:16 22° SW 04:30:51 10° S visible
30 Nov 11.1 19:13:11 10° NNW 19:24:01 18° NNE 19:37:26 11° NE visible
30 Nov 10.8 21:39:39 10° NNW 21:54:47 40° N 21:54:47 40° N visible
01 Dec 10.8 00:09:12 10° NW 00:49:09 34° SE 00:56:10 10° SE visible
01 Dec 10.6 03:06:22 36° SW 03:07:48 37° SW 03:21:33 10° SSE visible
01 Dec 10.8 20:28:02 10° NNW 20:45:10 31° NNE 20:48:30 30° NE visible
01 Dec 11.0 22:55:33 10° NW 23:41:19 16° ESE 23:43:29 10° ESE visible
02 Dec 10.5 01:58:31 50° S 01:58:31 50° S 02:11:12 10° SE visible
02 Dec 11.0 04:15:44 11° WSW 04:25:44 17° SSW 04:34:01 10° S visible
02 Dec 11.0 19:17:12 10° NNW 19:29:20 21° NNE 19:42:23 13° ENE visible
02 Dec 10.6 21:43:04 10° NW 21:59:47 48° N 21:59:47 48° N visible
03 Dec 10.7 00:12:59 10° WNW 00:50:31 41° SE 00:59:55 10° SE visible
03 Dec 10.9 03:07:43 28° SW 03:11:46 30° SW 03:24:58 10° SSE visible
03 Dec 10.7 20:31:32 10° NNW 20:49:31 37° NE 20:53:56 35° NE visible
03 Dec 10.8 22:59:05 10° NW 23:42:20 24° ESE 23:47:30 10° SE visible
04 Dec 10.7 01:59:30 45° SSW 01:59:30 45° SSW 02:14:42 10° SSE visible
04 Dec 11.2 04:22:16 10° SW 04:30:35 14° SSW 04:37:07 10° S visible
04 Dec 10.9 19:20:52 10° NNW 19:34:13 25° NNE 19:48:23 15° ENE visible
04 Dec 10.4 21:46:31 10° NW 22:05:51 60° NNE 22:05:51 60° NNE visible
05 Dec 10.7 00:17:02 10° WNW 00:51:01 48° SSE 01:03:31 10° SE visible
05 Dec 11.1 03:08:09 20° WSW 03:16:04 24° SSW 03:28:23 10° SSE visible
05 Dec 10.5 20:34:59 10° NNW 20:53:31 45° NE 21:00:47 39° ENE visible
05 Dec 10.6 23:02:47 10° NW 23:42:09 36° SE 23:51:18 10° SE visible
06 Dec 10.9 01:59:14 37° SW 02:01:21 38° SW 02:18:09 10° SSE visible
06 Dec 11.3 04:30:34 10° SW 04:35:48 12° SSW 04:40:15 10° S visible
06 Dec 10.7 19:24:22 10° NNW 19:38:41 30° NE 19:56:26 13° E visible
06 Dec 10.3 21:50:03 10° NW 22:12:11 73° NE 22:37:45 10° ESE visible
07 Dec 10.7 00:21:26 10° WNW 00:49:37 52° SSW 01:07:01 10° SE visible
07 Dec 11.2 03:06:35 11° WSW 03:20:47 20° SSW 03:31:54 10° SSE visible
07 Dec 10.4 20:38:27 10° NW 20:57:13 54° NE 21:22:25 10° ESE visible
07 Dec 10.5 23:06:43 10° WNW 23:37:56 59° SSE 23:54:54 10° SE visible
08 Dec 11.1 01:44:16 10° W 02:05:32 31° SSW 02:21:38 10° SSE visible
08 Dec 11.4 04:38:38 10° SSW 04:41:18 11° SSW 04:43:45 10° S visible
08 Dec 10.5 19:27:48 10° NNW 19:42:45 36° NE 20:04:41 10° E visible
08 Dec 10.3 21:53:43 10° NW 22:15:37 85° NE 22:41:37 10° SE visible
